{"data":{"norad_id":66824,"epoch":"2026-09-20T13:28:55.041888Z","epoch_age_seconds":78733,"freshness":"FRESH","line1":"1 66824U 25280D   26263.56174817  .00002871  00000+0  24824-3 0  9991","line2":"2 66824  70.0009 203.2042 0002838 270.2700  89.8134 14.98333959 45260","mean_motion":14.98333959,"eccentricity":0.0002838,"inclination_deg":70.0009,"raan_deg":203.2042,"arg_perigee_deg":270.27,"mean_anomaly_deg":89.8134,"bstar":0.00024824,"rev_number":4526,"period_min":96.106745185237,"perigee_km":570.07118682253,"apogee_km":574.01610935838,"semimajor_km":6950.1806480905,"source":"CELESTRAK","updated_at":"2026-09-21T09:00:36.019996Z"}}